This demonstration page uses our WeatherBlox Daily Observations layout. Learn more.

Left ArrowRight Arrow

Hourly Observations for February 9, 2019

Temp ( °F °C ) Dew Point ( °F °C ) Humidity (%) Winds ( mph kmh ) Pressure ( in mb ) Visibility ( mi km ) Precip ( " mm )
12:15 am 00:15 Clear 14 -10 9 -13 79 79 NW 12 19 30.82 1044 10 16 N/A
12:16 am 00:16 Clear 14 -10 9 -13 79 79 NW 10 17 30.82 1044 10 16 N/A
12:35 am 00:35 Clear 12 -11 9 -13 85 85 NW 9 15 30.84 1044 10 16 N/A
12:55 am 00:55 Clear 12 -11 9 -13 85 85 NW 9 15 30.85 1045 10 16 N/A
12:56 am 00:56 Clear 12 -11 9 -13 85 85 NW 8 13 30.85 1045 10 16 N/A
1:15 am 01:15 Clear 12 -11 9 -13 85 85 NW 9 15 30.86 1045 10 16 N/A
1:16 am 01:16 Clear 12 -11 9 -13 85 85 NW 10 17 30.86 1045 10 16 N/A
1:35 am 01:35 Clear 12 -11 7 -14 79 79 NW 8 13 30.87 1045 10 16 N/A
1:55 am 01:55 Clear 12 -11 9 -13 85 85 NW 7 11 30.87 1045 10 16 N/A
1:56 am 01:56 Clear 12 -11 9 -13 85 85 NNW 8 13 30.87 1045 10 16 N/A
2:15 am 02:15 Clear 10 -12 9 -13 92 92 NW 6 9 30.88 1046 10 16 N/A
2:35 am 02:35 Clear 12 -11 9 -13 85 85 NW 8 13 30.88 1046 10 16 N/A
2:55 am 02:55 Partly Cloudy 12 -11 9 -13 85 85 NNW 9 15 30.88 1046 10 16 N/A
2:56 am 02:56 Partly Cloudy 12 -11 9 -13 85 85 NNW 10 17 30.88 1046 10 16 N/A
3:15 am 03:15 Partly Cloudy 12 -11 9 -13 85 85 NNW 8 13 30.88 1046 10 16 N/A
3:35 am 03:35 Clear 10 -12 9 -13 92 92 N 8 13 30.89 1046 10 16 N/A
3:55 am 03:55 Partly Cloudy 12 -11 9 -13 85 85 N 10 17 30.89 1046 10 16 N/A
3:56 am 03:56 Partly Cloudy 12 -11 9 -13 85 85 N 10 17 30.89 1046 10 16 N/A
4:15 am 04:15 Mostly Cloudy 12 -11 9 -13 85 85 N 7 11 30.90 1046 10 16 N/A
4:35 am 04:35 Cloudy 12 -11 9 -13 85 85 N 8 13 30.90 1046 10 16 N/A
4:55 am 04:55 Mostly Cloudy 12 -11 9 -13 85 85 N 12 19 30.90 1046 10 16 N/A
4:56 am 04:56 Mostly Cloudy 12 -11 9 -13 85 85 N 12 19 30.90 1046 10 16 N/A
5:15 am 05:15 Partly Cloudy 10 -12 9 -13 92 92 N 9 15 30.90 1046 10 16 N/A
5:35 am 05:35 Partly Cloudy 10 -12 9 -13 92 92 N 8 13 30.90 1046 10 16 N/A
5:55 am 05:55 Clear 10 -12 9 -13 92 92 N 9 15 30.91 1047 10 16 N/A
5:56 am 05:56 Clear 10 -12 9 -13 92 92 N 8 13 30.91 1047 10 16 N/A
6:15 am 06:15 Clear 10 -12 7 -14 85 85 NNE 8 13 30.91 1047 10 16 N/A
6:35 am 06:35 Clear 10 -12 7 -14 85 85 NNE 8 13 30.91 1047 10 16 N/A
6:36 am 06:36 Clear 10 -12 7 -14 85 85 NNE 9 15 30.91 1047 10 16 N/A
6:55 am 06:55 Clear 10 -12 9 -13 92 92 NNE 6 9 30.92 1047 10 16 N/A
6:56 am 06:56 Clear 10 -12 9 -13 92 92 NNE 6 9 30.92 1047 10 16 N/A
7:15 am 07:15 Clear 10 -12 9 -13 92 92 NNE 7 11 30.92 1047 10 16 N/A
7:35 am 07:35 Clear 10 -12 9 -13 92 92 NNE 6 9 30.92 1047 10 16 N/A
7:36 am 07:36 Clear 10 -12 9 -13 92 92 NNE 6 9 30.92 1047 10 16 N/A
7:55 am 07:55 Sunny 10 -12 9 -13 92 92 NNE 6 9 30.92 1047 10 16 N/A
7:56 am 07:56 Sunny 10 -12 9 -13 92 92 NNE 6 9 30.92 1047 10 16 N/A
8:15 am 08:15 Sunny 10 -12 9 -13 92 92 NE 5 7 30.93 1048 10 16 N/A
8:35 am 08:35 Sunny 12 -11 9 -13 85 85 ENE 5 7 30.93 1047 10 16 N/A
8:36 am 08:36 Sunny 12 -11 9 -13 85 85 ENE 3 6 30.93 1047 10 16 N/A
8:55 am 08:55 Sunny 12 -11 9 -13 85 85 ENE 5 7 30.93 1047 10 16 N/A
8:56 am 08:56 Sunny 12 -11 9 -13 85 85 ENE 5 7 30.93 1047 10 16 N/A
9:15 am 09:15 Sunny 14 -10 10 -12 85 85 ENE 5 7 30.93 1048 10 16 N/A
9:35 am 09:35 Sunny 16 -9 12 -11 86 86 ENE 7 11 30.94 1048 10 16 N/A
9:36 am 09:36 Sunny 16 -9 12 -11 86 86 ENE 7 11 30.94 1048 10 16 N/A
9:55 am 09:55 Sunny 16 -9 12 -11 86 86 ENE 5 7 30.94 1048 10 16 N/A
9:56 am 09:56 Sunny 16 -9 10 -12 79 79 ENE 5 7 30.94 1048 10 16 N/A
10:15 am 10:15 Sunny 18 -8 12 -11 79 79 NE 3 6 30.95 1048 10 16 N/A
10:35 am 10:35 Sunny 18 -8 12 -11 79 79 ENE 8 13 30.95 1048 10 16 N/A
10:36 am 10:36 Sunny 18 -8 12 -11 79 79 E 8 13 30.96 1048 10 16 N/A
10:55 am 10:55 Sunny 18 -8 12 -11 79 79 SE 3 6 30.95 1048 10 16 N/A
11:15 am 11:15 Sunny 19 -7 12 -11 73 73 E 6 9 30.95 1048 10 16 N/A
11:16 am 11:16 Partly Cloudy 19 -7 12 -11 73 73 ESE 6 9 30.95 1048 10 16 N/A
11:35 am 11:35 Partly Cloudy 19 -7 12 -11 73 73 ESE 5 7 30.94 1048 10 16 N/A
11:36 am 11:36 Partly Cloudy 19 -7 12 -11 73 73 SE 3 6 30.94 1048 10 16 N/A
11:55 am 11:55 Partly Cloudy 19 -7 12 -11 73 73 E 5 7 30.93 1048 10 16 N/A
12:15 pm 12:15 Sunny 21 -6 14 -10 74 74 E 5 7 30.92 1047 10 16 N/A
12:16 pm 12:16 Sunny 21 -6 14 -10 74 74 E 7 11 30.92 1047 10 16 N/A
12:35 pm 12:35 Sunny 21 -6 14 -10 74 74 SE 5 7 30.91 1047 10 16 N/A
12:36 pm 12:36 Sunny 21 -6 14 -10 74 74 E 6 9 30.91 1047 10 16 N/A
12:55 pm 12:55 Sunny 23 -5 14 -10 68 68 SE 3 6 30.90 1046 10 16 N/A
1:15 pm 13:15 Sunny 23 -5 16 -9 74 74 ESE 6 9 30.88 1046 10 16 N/A
1:16 pm 13:16 Sunny 23 -5 16 -9 74 74 SE 5 7 30.88 1046 10 16 N/A
1:35 pm 13:35 Sunny 23 -5 16 -9 74 74 E 9 15 30.85 1045 10 16 N/A
1:36 pm 13:36 Sunny 23 -5 16 -9 74 74 E 7 11 30.86 1045 10 16 N/A
1:55 pm 13:55 Sunny 25 -4 16 -9 69 69 N N/A 30.84 1044 10 16 N/A
2:15 pm 14:15 Sunny 25 -4 18 -8 74 74 ENE 5 7 30.83 1044 10 16 N/A
2:16 pm 14:16 Sunny 25 -4 18 -8 74 74 ENE 5 7 30.83 1044 10 16 N/A
2:35 pm 14:35 Sunny 25 -4 16 -9 69 69 E 8 13 30.81 1043 10 16 N/A
2:36 pm 14:36 Sunny 25 -4 16 -9 69 69 E 10 17 30.81 1043 10 16 N/A
2:55 pm 14:55 Sunny 25 -4 16 -9 69 69 ESE 5 7 30.80 1043 10 16 N/A
3:15 pm 15:15 Sunny 25 -4 16 -9 69 69 E 5 7 30.79 1043 10 16 N/A
3:16 pm 15:16 Sunny 27 -3 18 -8 69 69 E 6 9 30.79 1043 10 16 N/A
3:35 pm 15:35 Sunny 27 -3 18 -8 69 69 ENE 7 11 30.79 1043 10 16 N/A
3:36 pm 15:36 Sunny 27 -3 18 -8 69 69 ENE 5 7 30.79 1043 10 16 N/A
3:55 pm 15:55 Sunny 27 -3 18 -8 69 69 E 7 11 30.78 1042 10 16 N/A
4:15 pm 16:15 Sunny 27 -3 18 -8 69 69 E 7 11 30.78 1042 10 16 N/A
4:16 pm 16:16 Sunny 27 -3 18 -8 69 69 E 8 13 30.78 1042 10 16 N/A
4:35 pm 16:35 Sunny 27 -3 18 -8 69 69 E 7 11 30.78 1042 10 16 N/A
4:36 pm 16:36 Sunny 27 -3 18 -8 69 69 E 8 13 30.78 1042 10 16 N/A
4:55 pm 16:55 Sunny 27 -3 18 -8 69 69 N N/A 30.78 1042 10 16 N/A
5:15 pm 17:15 Sunny 27 -3 18 -8 69 69 N N/A 30.78 1042 10 16 N/A
5:16 pm 17:16 Sunny 27 -3 18 -8 69 69 N N/A 30.78 1042 10 16 N/A
5:35 pm 17:35 Sunny 25 -4 18 -8 74 74 E 5 7 30.78 1042 10 16 N/A
5:55 pm 17:55 Sunny 25 -4 18 -8 74 74 E 3 6 30.79 1043 10 16 N/A
6:15 pm 18:15 Clear 25 -4 18 -8 74 74 E 3 6 30.78 1042 10 16 N/A
6:16 pm 18:16 Clear 25 -4 19 -7 80 80 E 5 7 30.78 1042 10 16 N/A
6:35 pm 18:35 Clear 23 -5 19 -7 86 86 E 5 7 30.78 1042 10 16 N/A
6:55 pm 18:55 Clear 23 -5 19 -7 86 86 E 6 9 30.77 1042 10 16 N/A
7:15 pm 19:15 Clear 23 -5 19 -7 86 86 E 5 7 30.76 1041 10 16 N/A
7:16 pm 19:16 Clear 21 -6 19 -7 93 93 E 5 7 30.76 1042 10 16 N/A
7:35 pm 19:35 Clear 21 -6 19 -7 93 93 E 5 7 30.75 1041 10 16 N/A
7:55 pm 19:55 Clear 23 -5 19 -7 86 86 E 3 6 30.76 1041 10 16 N/A
8:15 pm 20:15 Clear 23 -5 19 -7 86 86 ESE 3 6 30.76 1041 10 16 N/A
8:16 pm 20:16 Clear 23 -5 19 -7 86 86 ESE 3 6 30.76 1041 10 16 N/A
8:35 pm 20:35 Clear 23 -5 19 -7 86 86 E 5 7 30.73 1041 10 16 N/A
8:55 pm 20:55 Clear 21 -6 19 -7 93 93 E 6 9 30.73 1041 10 16 N/A
9:15 pm 21:15 Clear 21 -6 19 -7 93 93 E 7 11 30.73 1041 10 16 N/A
9:16 pm 21:16 Clear 21 -6 19 -7 93 93 E 7 11 30.73 1041 10 16 N/A
9:35 pm 21:35 Clear 21 -6 19 -7 93 93 E 8 13 30.73 1041 10 16 N/A
9:56 pm 21:56 Clear 21 -6 19 -7 93 93 E 7 11 30.73 1041 10 16 N/A

Powered by AerisWeather